Change the Weather History Date:

Sunday, September 15, 2013

  Actual Average Record
Temperature  
Mean Temperature 64 °F 68 °F  
Max Temperature 80 °F 80 °F 91 °F (1970)
Min Temperature 48 °F 56 °F 40 °F (1985)
Degree Days  
Heating Degree Days 1 1  
Month to date heating degree days 4 6  
Since 1 July heating degree days 4 7  
Cooling Degree Days 0 4  
Month to date cooling degree days 104 81  
Year to date cooling degree days 962 933  
Growing Degree Days 14 (Base 50)    
Moisture  
Dew Point 52 °F    
Average Humidity 67    
Maximum Humidity 96    
Minimum Humidity 37    
Precipitation  
Precipitation 0.00 in 0.11 in 1.93 in (1981)
Month to date precipitation 0.80 1.59  
Year to date precipitation 45.67 31.04  
Snow  
Snow 0.00 in 0.00 in - ()
Month to date snowfall 0.0 0.0  
Since 1 July snowfall 0.0 0.0  
Since 1 September snowfall 0.0 0.0  
Snow Depth 0.00 in    
Sea Level Pressure  
Sea Level Pressure 30.12 in    
Wind  
Wind Speed 2 mph (SSE)    
Max Wind Speed 10 mph    
Max Gust Speed 13 mph    
Visibility 10 miles    
Events      
T = Trace of Precipitation, MM = Missing Value Source: NWS Daily Summary

Daily Weather History Graph

Daily Weather History Graph

Search for Another Location

Airport or City:

Trip Planner

Search our weather history database for the weather conditions in past years. The results will help you decide how hot, cold, wet, or windy it might be!

Date:

Astronomy

Sep. 15, 2013 Rise Set
Actual Time 7:12 AM EDT 7:36 PM EDT
Civil Twilight 6:46 AM EDT 8:02 PM EDT
Nautical Twilight 6:15 AM EDT 8:32 PM EDT
Astronomical Twilight 5:44 AM EDT 9:03 PM EDT
Moon 4:58 PM EDT (9/15) 2:54 AM EDT (9/15)
Length of Visible Light 13h 16m
Length of Day
12h 24m
Waxing Gibbous, 82% of the Moon is Illuminated
Sep 15
Waxing Gibbous
Sep 19
Full
Sep 26
Last Quarter
Oct 4
New
Oct 11
First Quarter

Hourly Weather History & Observations

Time (EDT) Temp. Dew Point Humidity Pressure Visibility Wind Dir Wind Speed Gust Speed Precip Events Conditions
12:53 AM 52.0 °F 48.9 °F 89% 30.10 in 10.0 mi Calm Calm - N/A   Clear
1:53 AM 50.0 °F 48.0 °F 93% 30.10 in 10.0 mi NE 3.5 mph - N/A   Clear
2:53 AM 51.1 °F 48.9 °F 92% 30.10 in 10.0 mi NNE 3.5 mph - N/A   Clear
3:53 AM 52.0 °F 50.0 °F 93% 30.11 in 10.0 mi Calm Calm - N/A   Clear
4:53 AM 48.9 °F 46.9 °F 93% 30.12 in 10.0 mi Calm Calm - N/A   Clear
5:53 AM 48.9 °F 46.9 °F 93% 30.14 in 10.0 mi Calm Calm - N/A   Clear
6:53 AM 48.9 °F 46.9 °F 93% 30.15 in 10.0 mi North 3.5 mph - N/A   Clear
7:53 AM 50.0 °F 48.0 °F 93% 30.17 in 10.0 mi Calm Calm - N/A   Partly Cloudy
8:53 AM 55.9 °F 52.0 °F 87% 30.18 in 10.0 mi Calm Calm - N/A   Partly Cloudy
9:53 AM 61.0 °F 54.0 °F 78% 30.19 in 10.0 mi Calm Calm - N/A   Scattered Clouds
10:53 AM 68.0 °F 54.0 °F 61% 30.18 in 10.0 mi Calm Calm - N/A   Scattered Clouds
11:53 AM 72.0 °F 55.0 °F 55% 30.17 in 10.0 mi SSE 4.6 mph - N/A   Scattered Clouds
12:53 PM 75.9 °F 54.0 °F 46% 30.15 in 10.0 mi Variable 3.5 mph - N/A   Mostly Cloudy
1:53 PM 78.1 °F 51.1 °F 39% 30.14 in 10.0 mi South 8.1 mph - N/A   Mostly Cloudy
2:53 PM 78.1 °F 50.0 °F 37% 30.11 in 10.0 mi Calm Calm - N/A   Mostly Cloudy
3:53 PM 78.1 °F 51.1 °F 39% 30.09 in 10.0 mi Variable 4.6 mph - N/A   Mostly Cloudy
4:53 PM 79.0 °F 53.1 °F 40% 30.08 in 10.0 mi Calm Calm - N/A   Mostly Cloudy
5:53 PM 78.1 °F 54.0 °F 43% 30.08 in 10.0 mi SSW 3.5 mph - N/A   Mostly Cloudy
6:53 PM 75.9 °F 54.0 °F 46% 30.08 in 10.0 mi WSW 4.6 mph - N/A   Mostly Cloudy
7:53 PM 70.0 °F 59.0 °F 68% 30.09 in 10.0 mi Calm Calm - N/A   Mostly Cloudy
8:53 PM 66.9 °F 60.1 °F 79% 30.10 in 10.0 mi Calm Calm - N/A   Mostly Cloudy
9:53 PM 63.0 °F 57.9 °F 84% 30.12 in 10.0 mi Calm Calm - N/A   Mostly Cloudy
10:53 PM 61.0 °F 57.9 °F 90% 30.10 in 10.0 mi Calm Calm - N/A   Mostly Cloudy
11:53 PM 60.1 °F 57.0 °F 90% 30.10 in 9.0 mi Calm Calm - N/A   Mostly Cloudy